Regional Weather Roundup
Issued by NWS

Home | Current Version | Previous Version | Text Only | Print | Product List | Glossary On
Versions: 1 2 3 4 5 6 7 8 9 10 11 12 13 14 15 16 17 18 19 20 21 22 23 24 25 26 27 28 29 30 31 32 33 34 35 36 37 38 39 40 41 42 43 44 45 46 47 48 49 50
000
ASUS43 KMKX 271759
RWRWI

WISCONSIN REGIONAL WEATHER ROUNDUP
NATIONAL WEATHER SERVICE MILWAUKEE/SULLIVAN WI
100 PM CDT FRI MAR 27 2015

NOTE: "FAIR" INDICATES FEW OR NO CLOUDS BELOW 12,000 FEET WITH NO
SIGNIFICANT WEATHER AND/OR OBSTRUCTIONS TO VISIBILITY.

WIZ001-002-006>008-014>016-023>028-271900-
NORTHWEST WISCONSIN

CITY           SKY/WX    TMP DP  RH WIND       PRES   REMARKS
SUPERIOR ARPT  SUNNY     27   7  42 NE7       30.26F WCI  19
ASHLAND        SUNNY     29   8  41 N6        30.25F WCI  23
6HR MIN TEMP:  12; 6HR MAX TEMP:  29;

HAYWARD        SUNNY     28   4  35 VRB5      30.20F WCI  23
6HR MIN TEMP:   9; 6HR MAX TEMP:  28;

SIREN          SUNNY     28   5  36 W5        30.23F WCI  23
CUMBERLAND     SUNNY     28   7  40 W3        30.21F
RICE LAKE      SUNNY     29   7  39 NW6       30.23F WCI  23
6HR MIN TEMP:  15; 6HR MAX TEMP:  29;

CHETEK         SUNNY     28   7  41 NE3       30.22F
LADYSMITH      SUNNY     29   6  38 CALM      30.21F
6HR MIN TEMP:  13; 6HR MAX TEMP:  29;

EAU CLAIRE     NOT AVBL
MENOMONIE      SUNNY     31   6  34 NE3       30.23F
6HR MIN TEMP:  16; 6HR MAX TEMP:  31;

NEW RICHMOND   SUNNY     29   3  32 NE5       30.24F WCI  24
OSCEOLA        SUNNY     30   5  34 CALM      30.27F
$$

WIZ003>005-009-010-017-018-271900-
NORTH CENTRAL WISCONSIN

CITY           SKY/WX    TMP DP  RH WIND       PRES   REMARKS
MANITOWISH WTR SUNNY     22   1  40 NE6       30.16F WCI  15
ARBOR VITAE    SUNNY     23   2  40 E3        30.16F
WOODRUFF       SUNNY     23   2  40 E3        30.16F
RHINELANDER    SUNNY     24   2  38 VRB3      30.16F
6HR MIN TEMP:  10; 6HR MAX TEMP:  24; 6HR PCP: TRACE;

EAGLE RIVER    SUNNY     22  -5  31 N3        30.15F
LAND O LAKES   SUNNY     22  -4  31 N8        30.17F WCI  13
PHILLIPS       SUNNY     26   7  44 CALM      30.16F
6HR MIN TEMP:   6; 6HR MAX TEMP:  26;

TOMAHAWK       SUNNY     24   0  34 CALM      30.18S
MEDFORD        FAIR      25   7  45 NE5       30.18F WCI  19
MERRILL        SUNNY     25   3  38 NE5       30.18F WCI  19
$$

WIZ029-030-035-036-043>047-271900-
CENTRAL WISCONSIN

CITY           SKY/WX    TMP DP  RH WIND       PRES   REMARKS
WAUSAU         SUNNY     26   6  42 NW7       30.17F WCI  18
6HR MIN TEMP:  12; 6HR MAX TEMP:  26; 6HR PCP: TRACE;

MOSINEE        NOT AVBL
MARSHFIELD     MOSUNNY   26  10  50 NW5       30.19F WCI  20
6HR MIN TEMP:  13; 6HR MAX TEMP:  27;

STEVENS POINT  SUNNY     23   4  44 NE3       30.20F
WAUPACA        SUNNY     30   1  28 N3G17     30.21S
6HR MIN TEMP:  17; 6HR MAX TEMP:  30;

WAUTOMA        NOT AVBL
WISC RAPIDS    SUNNY     28   5  37 N13G18    30.22F WCI  17
6HR MIN TEMP:  13; 6HR MAX TEMP:  28;

CAMP DOUGLAS   NOT AVBL
$$

WIZ011>013-019>022-031-037>040-048>050-271900-
NORTHEAST WISCONSIN

CITY           SKY/WX    TMP DP  RH WIND       PRES   REMARKS
ANTIGO         SUNNY     21   2  43 N5        30.16F WCI  15
SHAWANO        SUNNY     29   6  38 NE7       30.21F WCI  22
OCONTO         SUNNY     25   4  40 NW8G18    30.22S WCI  16
STURGEON BAY   SUNNY     19   7  58 N14G20    30.23S WCI   6
6HR MIN TEMP:  14; 6HR MAX TEMP:  19;

GREEN BAY      SUNNY     26   5  40 N8G18     30.21S WCI  18
6HR MIN TEMP:  17; 6HR MAX TEMP:  27;

MANITOWOC      NOT AVBL
APPLETON       MOSUNNY   25   1  36 NE14      30.20F WCI  13
CLINTONVILLE   SUNNY     28   1  31 N9        30.20F WCI  20
OSHKOSH        MOSUNNY   27   5  39 N15G21    30.20S WCI  15
6HR MIN TEMP:  17; 6HR MAX TEMP:  27;

$$

WIZ032>034-041-042-053>061-271900-
SOUTHWEST WISCONSIN

CITY           SKY/WX    TMP DP  RH WIND       PRES   REMARKS
LA CROSSE      SUNNY     31  11  43 SW9       30.24F WCI  23
6HR MIN TEMP:  17; 6HR MAX TEMP:  32;

SPARTA         SUNNY     31   6  34 NW9       30.23F WCI  23
VIROQUA        SUNNY     27   9  46 N5        30.20F WCI  22
BOSCOBEL       SUNNY     31   9  39 N10       30.23F WCI  22
6HR MIN TEMP:  14; 6HR MAX TEMP:  31; 6HR PCP: TRACE;

PRAIRIE DU CHI SUNNY     29   7  39 NW8       30.24F WCI  21
PLATTEVILLE    SUNNY     28  13  53 NW13      30.21S WCI  18
$$

WIZ056-057-062-063-064-067-068-271900-
SOUTH CENTRAL WISCONSIN

CITY           SKY/WX    TMP DP  RH WIND       PRES   REMARKS
REEDSBURG      SUNNY     28   4  36 NW10G16   30.21S WCI  19
BARABOO/DELLS  SUNNY     28   2  31 NW8       30.20S WCI  20
LONE ROCK      NOT AVBL
MINERAL POINT  SUNNY     30   7  37 N8        30.19F WCI  23
MADISON        SUNNY     29   4  34 N8G20     30.19F WCI  21
6HR MIN TEMP:  16; 6HR MAX TEMP:  30;

MIDDLETON      SUNNY     31   6  35 N10G18    30.20F WCI  22
WATERTOWN      SUNNY     29   6  38 N18G24    30.18S WCI  16
MONROE         MOSUNNY   28  12  50 N6        30.19S WCI  22
JANESVILLE     MOSUNNY   30   3  31 N14G20    30.19S WCI  20
$$

WIZ051-052-058>065-066-070>072-271900-
SOUTHEAST WISCONSIN

CITY           SKY/WX    TMP DP  RH WIND       PRES   REMARKS
MILWAUKEE      MOSUNNY   27   8  44 NE16G23   30.18S WCI  15
6HR MIN TEMP:  18; 6HR MAX TEMP:  28;

WAUKESHA       MOSUNNY   27   3  36 N10G20    30.18S WCI  17
MILWAUKEE/TIMM MOSUNNY   28   3  34 N9        30.19F WCI  20
RACINE         MOSUNNY   26  12  55 N18G24    30.20S WCI  13
6HR MIN TEMP:  18; 6HR MAX TEMP:  26;

BURLINGTON     SUNNY     26   4  38 N10G20    30.17S WCI  16
KENOSHA        MOSUNNY   28   8  43 NE8       30.18S WCI  20
6HR MIN TEMP:  19; 6HR MAX TEMP:  29;

FOND DU LAC    SUNNY     26   7  44 NE17      30.21S WCI  13
6HR MIN TEMP:  18; 6HR MAX TEMP:  27;

SHEBOYGAN      PTSUNNY   26   9  48 N14G22    30.19S WCI  14
6HR MIN TEMP:  19; 6HR MAX TEMP:  27;

WEST BEND      PTSUNNY   27   3  36 NW13G18   30.17F WCI  16
JUNEAU         SUNNY     26   5  41 N12       30.20S WCI  15
$$

LSZ147-162-271900-
LAKE SUPERIOR

STATION/POSITION TIME  TEMP    WIND        PRES    WAVE
                       AIR SEA DIR/SP/G            HT/PER
                 (UTC) (F)     (DEG/KT/KT) (MB)    (FT/S)
DEVILS ISLAND    1700   19      40/  4/  5 1027.2F
PORT WING        1740   22      10/  9/ 12 1025.1F
SAXON HARBOR     1700   22     360/  7/  9 1025.1F
$$

LMZ867-665-643>646-271900-
LAKE MICHIGAN

STATION/POSITION TIME  TEMP    WIND        PRES    WAVE
                       AIR SEA DIR/SP/G            HT/PER
                 (UTC) (F)     (DEG/KT/KT) (MB)    (FT/S)
NORTHPORT PIER   1714   16     350/ 16/ 22 1023.4F
KEWAUNEE LAKESHO 1700   20      20/ 10/ 15 1022.2F
SHEBOYGAN LAKESH 1700   21      10/ 17/ 20 1024.0S
PORT WASHINGTON  1740   26     360/  9/ 19 1023.0F
MILWAUKEE LAKESH 1700   23      20/ 16/ 20   N/A
KENOSHA   LAKESH 1700   23      10/ 19/ 24 1022.0S
$$

TC  - TEMPERATURE IN CELSIUS
VSB - VISIBILITY IN STATUTE MILES
WCI - WIND CHILL INDEX
HX  - HEAT INDEX




USA.gov is the U.S. government's official web portal to all federal, state and local government web resources and services.